Tracking 30970 objects as of 3-Jul-2025
HD Live streaming from Space Station
objects crossing your sky now

IRIDIUM 44

Track IRIDIUM 44 now!
10-day predictions
IRIDIUM 44 is classified as:


NORAD ID: 25078
Int'l Code: 1997-077B
Perigee: 763.1 km
Apogee: 766.5 km
Inclination: 86.4 °
Period: 100.0 minutes
Semi major axis: 7135 km
RCS: 3.743 m2 (large)
Launch date: December 8, 1997
Source: United States (US)
Launch site: Taiyaun Space Center, China (TSC)
Your satellite tracking list
IRIDIUM 33 DEB
Track 1 satellite(s)




NASA's NSSDC Master Catalog

Two Line Element Set (TLE):
1 25078U 97077B   25183.62285669  .00000250  00000-0  72876-4 0  9996
2 25078  86.3962 214.7386 0002350  43.4468 316.6916 14.40250439445926
Source of the keplerian elements: AFSPC